Location: *
(43.9900°N, 3.4811°E)
Time: 10:52:22
(UTC+00:00)

Cosmos 1340 - Pass Details

Date: 25 August 2019
Orbit: 503 x 506 km, 81.2° (Epoch: 16 September)

Event Time Altitude Azimuth Distance (km) Brightness Sun altitude
Exits shadow 20:31:06 50° 82° (E) 646 2.8 -19.5°
Drops below altitude 10° 20:34:33 10° 20° (NNE) 1,723 5.6 -20.0°
Sets 20:36:43 0° 16° (NNE) 2,613 6.6 -20.3°
